Terminal Aerodrome Forecast
Issued by NWS Charleston, WV

Current Version | Previous Version | Graphics & Text | Print | Product List | Glossary On
Versions: 1 2 3 4 5 6 7 8 9 10 11 12 13 14 15 16 17 18 19 20 21 22 23 24 25
000
FTUS41 KRLX 160437 AAB
TAFEKN
TAF AMD
KEKN 160437Z 1605/1624 26008G18KT P6SM -SHSN OVC025
      TEMPO 1605/1608 OVC035
     FM160800 28010KT P6SM BKN035
     FM161700 25010KT P6SM SCT070=

USA.gov is the U.S. government's official web portal to all federal, state and local government web resources and services.